Location: Bullenkuhlen
(53.7689°N, 9.7495°E)
Time: 08:39:59
(UTC+00:00)

Cosmos 839 Rocket - Pass Details

Date: 09 April 2020
Orbit: 963 x 2090 km, 65.9° (Epoch: 24 May)

Event Time Altitude Azimuth Distance (km) Brightness Sun altitude
Exits shadow 23:14:57 56° 112° (ESE) 1,212 4.2 -28.2°
Drops below altitude 10° 23:21:30 10° 46° (NE) 3,064 7.1 -28.2°
Sets 23:24:29 0° 43° (NE) 4,169 8.0 -28.2°
